Appleton, MN

9:46 AM CDT on August 21, 2017 (GMT -0500)
Appleton Municipal

Weather History for KAQP - June, 2015

Change the Weather History Date:

Monday, June 8, 2015

  Actual Average Record
Temperature  
Mean Temperature 71 °F -  
Max Temperature 87 °F 73 °F 89 °F (2012)
Min Temperature 55 °F 52 °F 44 °F (2007)
Cooling Degree Days 6    
Growing Degree Days 21 (Base 50)    
Moisture  
Dew Point 52 °F    
Average Humidity 53    
Maximum Humidity 88    
Minimum Humidity 25    
Precipitation  
Precipitation 0.00 in - - ()
Sea Level Pressure  
Sea Level Pressure 29.78 in    
Wind  
Wind Speed 7 mph (WNW)    
Max Wind Speed 17 mph    
Max Gust Speed 26 mph    
Visibility 10 miles    
Events      
Averages and records for this station are not official NWS values.
T = Trace of Precipitation, MM = Missing Value Source: NWS Daily Summary

Daily Weather History Graph

Daily Weather History Graph

Search for Another Location

Airport or City:

Trip Planner

Search our weather history database for the weather conditions in past years. The results will help you decide how hot, cold, wet, or windy it might be!

Date:

Astronomy

Jun. 08, 2015 Rise Set
Actual Time 5:36 AM CDT 9:09 PM CDT
Civil Twilight 4:59 AM CDT 9:46 PM CDT
Nautical Twilight 4:10 AM CDT 10:36 PM CDT
Astronomical Twilight 3:06 AM CDT 11:40 PM CDT
Moon 12:54 AM CDT (6/8) 12:11 PM CDT (6/8)
Length of Visible Light 16h 47m
Length of Day
15h 32m
Waning Gibbous, 61% of the Moon is Illuminated
Jun 8
Waning Gibbous
Jun 9
Last Quarter
Jun 16
New
Jun 24
First Quarter
Jul 1
Full

Hourly Weather History & Observations

Time (CDT) Temp. Heat Index Dew Point Humidity Pressure Visibility Wind Dir Wind Speed Gust Speed Precip Events Conditions
12:14 AM 64.4 °F - 53.6 °F 68% 29.74 in 10.0 mi West 9.2 mph - N/A   Clear
12:35 AM 68.0 °F - 53.6 °F 60% 29.75 in 10.0 mi NNW 17.3 mph - N/A   Clear
12:54 AM 69.8 °F - 51.8 °F 53% 29.73 in 10.0 mi North 13.8 mph 26.5 mph N/A   Clear
1:14 AM 68.0 °F - 51.8 °F 56% 29.72 in 10.0 mi North 3.5 mph - N/A   Clear
1:35 AM 66.2 °F - 48.2 °F 52% 29.72 in 10.0 mi NNW 4.6 mph - N/A   Clear
1:54 AM 64.4 °F - 51.8 °F 64% 29.72 in 10.0 mi West 6.9 mph - N/A   Clear
2:14 AM 62.6 °F - 51.8 °F 68% 29.73 in 10.0 mi West 8.1 mph - N/A   Clear
2:34 AM 62.6 °F - 53.6 °F 72% 29.74 in 10.0 mi West 8.1 mph - N/A   Clear
2:54 AM 62.6 °F - 53.6 °F 72% 29.75 in 10.0 mi West 8.1 mph - N/A   Clear
3:14 AM 60.8 °F - 53.6 °F 77% 29.75 in 10.0 mi West 4.6 mph - N/A   Clear
3:34 AM 59.0 °F - 53.6 °F 82% 29.75 in 10.0 mi Calm Calm - N/A   Clear
3:54 AM 57.2 °F - 53.6 °F 88% 29.76 in 10.0 mi West 3.5 mph - N/A   Clear
4:14 AM 57.2 °F - 53.6 °F 88% 29.76 in 10.0 mi Calm Calm - N/A   Clear
4:35 AM 57.2 °F - 53.6 °F 88% 29.77 in 10.0 mi West 3.5 mph - N/A   Clear
4:55 AM 55.4 °F - 51.8 °F 88% 29.77 in 10.0 mi Calm Calm - N/A   Clear
5:14 AM 57.2 °F - 53.6 °F 88% 29.77 in 10.0 mi Calm Calm - N/A   Clear
5:35 AM 57.2 °F - 53.6 °F 88% 29.77 in 10.0 mi Calm Calm - N/A   Clear
5:54 AM 57.2 °F - 53.6 °F 88% 29.78 in 10.0 mi Calm Calm - N/A   Clear
6:15 AM 55.4 °F - 51.8 °F 88% 29.79 in 10.0 mi Calm Calm - N/A   Clear
6:34 AM 55.4 °F - 51.8 °F 88% 29.79 in 10.0 mi WSW 3.5 mph - N/A   Clear
6:54 AM 59.0 °F - 55.4 °F 88% 29.79 in 10.0 mi WSW 4.6 mph - N/A   Clear
7:15 AM 60.8 °F - 55.4 °F 82% 29.79 in 10.0 mi SW 4.6 mph - N/A   Clear
7:35 AM 64.4 °F - 57.2 °F 77% 29.80 in 10.0 mi West 4.6 mph - N/A   Clear
7:54 AM 64.4 °F - 55.4 °F 73% 29.80 in 10.0 mi West 9.2 mph - N/A   Clear
8:14 AM 66.2 °F - 57.2 °F 73% 29.80 in 10.0 mi West 6.9 mph - N/A   Clear
8:34 AM 68.0 °F - 57.2 °F 68% 29.81 in 10.0 mi West 6.9 mph - N/A   Clear
8:54 AM 69.8 °F - 55.4 °F 60% 29.81 in 10.0 mi NW 5.8 mph - N/A   Clear
9:15 AM 69.8 °F - 57.2 °F 64% 29.81 in 10.0 mi WNW 9.2 mph - N/A   Clear
9:35 AM 71.6 °F - 57.2 °F 60% 29.82 in 10.0 mi NW 8.1 mph - N/A   Clear
9:55 AM 73.4 °F - 55.4 °F 53% 29.81 in 10.0 mi NW 4.6 mph - N/A   Clear
10:15 AM 73.4 °F - 55.4 °F 53% 29.81 in 10.0 mi NNW 5.8 mph - N/A   Clear
10:34 AM 75.2 °F - 55.4 °F 50% 29.82 in 10.0 mi NW 9.2 mph - N/A   Clear
10:54 AM 77.0 °F - 55.4 °F 47% 29.82 in 10.0 mi North 8.1 mph - N/A   Clear
11:15 AM 78.8 °F - 55.4 °F 44% 29.82 in 10.0 mi NW 5.8 mph - N/A   Clear
11:35 AM 78.8 °F - 53.6 °F 42% 29.82 in 10.0 mi NW 6.9 mph - N/A   Clear
11:55 AM 80.6 °F - 51.8 °F 37% 29.82 in 10.0 mi North 10.4 mph - N/A   Clear
12:14 PM 80.6 °F - 51.8 °F 37% 29.82 in 10.0 mi North 9.2 mph - N/A   Clear
12:34 PM 80.6 °F - 48.2 °F 32% 29.82 in 10.0 mi NW 10.4 mph - N/A   Clear
12:54 PM 80.6 °F - 50.0 °F 34% 29.82 in 10.0 mi NNW 11.5 mph - N/A   Clear
1:14 PM 82.4 °F - 50.0 °F 32% 29.81 in 10.0 mi NNW 12.7 mph 17.3 mph N/A   Clear
1:34 PM 82.4 °F - 48.2 °F 30% 29.81 in 10.0 mi NNW 12.7 mph 18.4 mph N/A   Clear
1:54 PM 82.4 °F - 48.2 °F 30% 29.81 in 10.0 mi NW 13.8 mph 19.6 mph N/A   Clear
2:14 PM 84.2 °F - 48.2 °F 29% 29.81 in 10.0 mi NW 13.8 mph 17.3 mph N/A   Clear
2:35 PM 84.2 °F - 48.2 °F 29% 29.81 in 10.0 mi NW 16.1 mph 23.0 mph N/A   Clear
2:55 PM 84.2 °F - 46.4 °F 27% 29.80 in 10.0 mi NW 15.0 mph 20.7 mph N/A   Clear
3:15 PM 84.2 °F - 46.4 °F 27% 29.80 in 10.0 mi NW 13.8 mph 21.9 mph N/A   Clear
3:35 PM 84.2 °F - 44.6 °F 25% 29.80 in 10.0 mi NNW 15.0 mph 19.6 mph N/A   Clear
3:54 PM 84.2 °F - 46.4 °F 27% 29.80 in 10.0 mi NNW 13.8 mph 19.6 mph N/A   Clear
4:15 PM 84.2 °F - 46.4 °F 27% 29.79 in 10.0 mi NNW 10.4 mph 19.6 mph N/A   Clear
4:34 PM 84.2 °F - 46.4 °F 27% 29.79 in 10.0 mi NNW 11.5 mph - N/A   Clear
4:55 PM 86.0 °F - 46.4 °F 25% 29.78 in 10.0 mi NNW 6.9 mph 11.5 mph N/A   Clear
5:15 PM 86.0 °F - 48.2 °F 27% 29.78 in 10.0 mi WNW 12.7 mph 18.4 mph N/A   Clear
5:34 PM 87.8 °F - 48.2 °F 25% 29.78 in 10.0 mi WNW 12.7 mph - N/A   Scattered Clouds
5:54 PM 86.0 °F - 48.2 °F 27% 29.78 in 10.0 mi West 10.4 mph - N/A   Scattered Clouds
6:15 PM 86.0 °F - 50.0 °F 29% 29.77 in 10.0 mi NW 9.2 mph - N/A   Clear
6:35 PM 82.4 °F - 48.2 °F 30% 29.77 in 10.0 mi WNW 8.1 mph - N/A   Clear
6:54 PM 84.2 °F - 50.0 °F 30% 29.76 in 10.0 mi WNW 6.9 mph - N/A   Clear
7:15 PM 84.2 °F - 48.2 °F 29% 29.76 in 10.0 mi West 5.8 mph - N/A   Clear
7:34 PM 84.2 °F - 51.8 °F 33% 29.76 in 10.0 mi SW 4.6 mph - N/A   Clear
7:54 PM 82.4 °F - 51.8 °F 35% 29.76 in 10.0 mi SW 5.8 mph - N/A   Clear
8:14 PM 80.6 °F - 51.8 °F 37% 29.76 in 10.0 mi SW 4.6 mph - N/A   Clear
8:34 PM 80.6 °F 80.3 °F 53.6 °F 39% 29.75 in 10.0 mi SW 4.6 mph - N/A   Clear
8:54 PM 78.8 °F - 51.8 °F 39% 29.75 in 10.0 mi WSW 4.6 mph - N/A   Clear
9:15 PM 75.2 °F - 53.6 °F 47% 29.76 in 10.0 mi SW 4.6 mph - N/A   Clear
9:34 PM 75.2 °F - 53.6 °F 47% 29.76 in 10.0 mi WSW 4.6 mph - N/A   Clear
9:54 PM 73.4 °F - 53.6 °F 50% 29.76 in 10.0 mi WSW 4.6 mph - N/A   Clear
10:14 PM 71.6 °F - 57.2 °F 60% 29.76 in 10.0 mi WSW 3.5 mph - N/A   Clear
10:34 PM 69.8 °F - 59.0 °F 68% 29.77 in 10.0 mi SW 3.5 mph - N/A   Clear
10:54 PM 69.8 °F - 55.4 °F 60% 29.77 in 10.0 mi Calm Calm - N/A   Clear
11:14 PM 69.8 °F - 55.4 °F 60% 29.76 in 10.0 mi SW 3.5 mph - N/A   Clear
11:35 PM 68.0 °F - 57.2 °F 68% 29.76 in 10.0 mi SW 3.5 mph - N/A   Clear
11:54 PM 68.0 °F - 59.0 °F 73% 29.76 in 10.0 mi SW 3.5 mph - N/A   Clear